Home > Weather > Tórshavn > Past weeks

Flag for Faroe Islands Past Weather in Tórshavn, Faroe Islands — Yesterday and Last 2 Weeks

Now
55 °F

Partly sunny.


Feels Like: 55 °F
Forecast: 49 / 56 °F
Wind: 2 mph from North

Location: Soervaag / Vagar

Current Time: Aug 27, 2016 at 6:17:03 PM

Latest Report: Aug 27, 2016 at 5:20 PM


Visibility: N/A

Pressure: 30.04 "Hg

Humidity: 77%

Dew Point: 48 °F

Location of TórshavnLocation

Past Weather in Tórshavn — Graph

°F

Tórshavn Temperature Yesterday

Maximum temperature yesterday: 54 °F (at 1:50 PM)
Minimum temperature yesterday: 46 °F (at 11:20 PM)
Average temperature yesterday: 51 °F

High & Low Weather Summary for the Past Weeks

 TemperatureHumidityPressure
High63 °F (Aug 16, 3:20 PM)100% (Aug 12, 5:20 PM)30.15 "Hg (Aug 12, 5:20 PM)
Low46 °F (Aug 26, 11:20 PM)68% (Aug 20, 3:50 PM)29.62 "Hg (Aug 12, 5:20 PM)
Average53 °F92%29.95 "Hg
* Reported Aug 12 5:20 PM — Aug 27 5:20 PM, Tórshavn, Weather by CustomWeather, © 2016

Note: Actual official high and low records may vary slightly from our data, if they occured in-between our weather recording intervals... More about our weather records

Advertising

Tórshavn Weather History for the Previous 24 Hours

Scroll right to see more
 ConditionsComfort  
Time TempWeatherWind HumidityBarometerVisibility
5:20 PM
Sat, Aug 27
55 °FPartly sunny.2 mph77%30.04 "HgN/A
4:50 PM55 °FBroken clouds.5 mph77%30.07 "HgN/A
4:20 PM55 °FPartly sunny.8 mph77%30.07 "HgN/A
3:50 PM54 °FPartly sunny.9 mph82%30.07 "HgN/A
2:51 PM55 °FBroken clouds.5 mph72%30.07 "HgN/A
1:51 PM55 °FPartly sunny.3 mph72%30.07 "HgN/A
12:51 PM54 °FBroken clouds.5 mph82%30.07 "HgN/A
11:50 AM55 °FPartly sunny.6 mph72%30.04 "HgN/A
10:51 AM54 °FPartly sunny.1 mph82%30.04 "HgN/A
9:50 AM52 °FPartly sunny.1 mph88%30.04 "HgN/A
8:51 AM52 °FPartly sunny.3 mph82%30.01 "HgN/A
7:50 AM52 °FBroken clouds.3 mph82%30.01 "HgN/A
7:20 AM52 °FPartly sunny.1 mph82%30.01 "HgN/A
6:50 AM50 °FPassing clouds.5 mph88%30.01 "HgN/A
6:20 AM50 °FOvercast.2 mph88%29.98 "HgN/A
5:50 AM50 °FOvercast.2 mph88%29.98 "HgN/A
5:20 AM50 °FOvercast.2 mph88%29.98 "HgN/A
4:50 AM48 °FOvercast.3 mph94%29.98 "HgN/A
4:20 AM48 °FOvercast.3 mph94%29.98 "HgN/A
3:50 AM48 °FPassing clouds.3 mph94%29.95 "HgN/A
3:20 AM48 °FOvercast.3 mph94%29.95 "HgN/A
2:50 AM48 °FOvercast.1 mph94%29.95 "HgN/A
2:20 AM48 °FOvercast.No wind87%29.95 "HgN/A
1:50 AM48 °FPassing clouds.No wind87%29.95 "HgN/A
1:20 AM46 °FPassing clouds.1 mph93%29.95 "HgN/A
12:50 AM46 °FPassing clouds.No wind93%29.92 "HgN/A
12:20 AM46 °FPassing clouds.1 mph93%29.92 "HgN/A
11:50 PM
Fri, Aug 26
48 °FPassing clouds.1 mph87%29.92 "HgN/A
11:20 PM46 °FPassing clouds.No wind93%29.89 "HgN/A
10:50 PM50 °FPassing clouds.No wind88%29.89 "HgN/A
10:20 PM50 °FPassing clouds.1 mph88%29.89 "HgN/A
9:50 PM50 °FOvercast.2 mph88%29.86 "HgN/A
9:20 PM50 °FPartly sunny.5 mph82%29.86 "HgN/A
8:50 PM52 °FBroken clouds.3 mph77%29.86 "HgN/A
7:49 PM52 °FBroken clouds.3 mph77%29.83 "HgN/A
6:50 PM52 °FBroken clouds.8 mph82%29.83 "HgN/A
Weather by CustomWeather, © 2016

See weather overviewHow to use our weather pages